Location: A�t Lahcen
(32.8243°N, 5.4246°W)
Time: 01:21:54
(UTC+00:00)

Cosmos 2098 Rocket - Pass Details

Date: 27 January 2021
Orbit: 366 x 1182 km, 82.9° (Epoch: 26 February)

Event Time Altitude Azimuth Distance (km) Brightness Sun altitude
Rises 06:30:30 0° 350° (N) 3,385 6.6 -10.6°
Reaches altitude 10° 06:33:12 10° 347° (NNW) 2,306 5.7 -10.1°
Maximum altitude 06:38:12 60° 269° (W) 730 3.1 -9.1°
Drops below altitude 10° 06:42:07 10° 188° (S) 1,808 5.6 -8.3°
Sets 06:44:02 0° 185° (S) 2,592 6.4 -7.9°
